Weather History for Falls City, NE

Change the Weather History Date:

Monday, February 24, 2014

  Actual Average Record
Temperature  
Mean Temperature 27 °F -  
Max Temperature 30 °F 44 °F 70 °F (1954)
Min Temperature 24 °F 22 °F -8 °F (1989)
Degree Days  
Heating Degree Days 38    
Moisture  
Dew Point 18 °F    
Average Humidity 70    
Maximum Humidity 81    
Minimum Humidity 56    
Precipitation  
Precipitation 0.00 in - - ()
Sea Level Pressure  
Sea Level Pressure 30.33 in    
Wind  
Wind Speed 5 mph (ENE)    
Max Wind Speed 12 mph    
Max Gust Speed -    
Visibility 10 miles    
Events      
Averages and records for this station are not official NWS values.
T = Trace of Precipitation, MM = Missing Value Source: NWS Daily Summary

Daily Weather History Graph

Daily Weather History Graph

Search for Another Location

Airport:

Trip Planner

Search our weather history database for the weather conditions in past years. The results will help you decide how hot, cold, wet, or windy it might be!

Date:

Astronomy

Feb. 24, 2014 Rise Set
Actual Time 7:03 AM CST 6:08 PM CST
Civil Twilight 6:35 AM CST 6:36 PM CST
Nautical Twilight 6:04 AM CST 7:07 PM CST
Astronomical Twilight 5:32 AM CST 7:38 PM CST
Moon 3:02 AM CST (2/24) 1:10 PM CST (2/24)
Length of Visible Light 12h 00m
Length of Day
11h 05m
Waning Crescent, 28% of the Moon is Illuminated
Feb 24
Waning Crescent
Mar 1
New
Mar 8
First Quarter
Mar 16
Full
Mar 23
Last Quarter

Hourly Weather History & Observations

Time (CST) Temp. Windchill Dew Point Humidity Pressure Visibility Wind Dir Wind Speed Gust Speed Precip Events Conditions
12:53 AM 26.1 °F - 19.0 °F 75% 30.39 in 10.0 mi Calm Calm - N/A   Overcast
1:53 AM 26.1 °F - 19.9 °F 78% 30.38 in 10.0 mi Calm Calm - N/A   Overcast
2:53 AM 26.1 °F - 19.0 °F 75% 30.39 in 10.0 mi Calm Calm - N/A   Overcast
3:53 AM 25.0 °F 19.3 °F 19.0 °F 78% 30.37 in 10.0 mi North 4.6 mph - N/A   Mostly Cloudy
4:53 AM 25.0 °F 20.7 °F 18.0 °F 75% 30.36 in 10.0 mi NNE 3.5 mph - N/A   Mostly Cloudy
5:53 AM 24.1 °F 17.0 °F 19.0 °F 81% 30.36 in 10.0 mi ENE 5.8 mph - N/A   Mostly Cloudy
6:53 AM 24.1 °F 18.2 °F 19.0 °F 81% 30.36 in 10.0 mi East 4.6 mph - N/A   Mostly Cloudy
7:53 AM 25.0 °F 20.7 °F 19.9 °F 81% 30.39 in 10.0 mi ENE 3.5 mph - N/A   Overcast
8:53 AM 25.0 °F 17.1 °F 19.0 °F 78% 30.40 in 10.0 mi East 6.9 mph - N/A   Overcast
9:53 AM 25.0 °F 18.1 °F 18.0 °F 75% 30.40 in 10.0 mi East 5.8 mph - N/A   Overcast
10:53 AM 26.1 °F 16.8 °F 17.1 °F 69% 30.38 in 10.0 mi ESE 9.2 mph - N/A   Overcast
11:53 AM 27.0 °F 18.0 °F 17.1 °F 66% 30.35 in 10.0 mi ESE 9.2 mph - N/A   Overcast
12:53 PM 28.0 °F 18.6 °F 17.1 °F 63% 30.31 in 10.0 mi East 10.4 mph - N/A   Overcast
1:53 PM 28.9 °F 19.8 °F 17.1 °F 61% 30.28 in 10.0 mi ESE 10.4 mph - N/A   Overcast
2:53 PM 28.9 °F 19.2 °F 16.0 °F 58% 30.24 in 10.0 mi East 11.5 mph - N/A   Overcast
3:53 PM 28.9 °F 19.8 °F 15.1 °F 56% 30.23 in 10.0 mi SE 10.4 mph - N/A   Overcast
4:53 PM 30.0 °F 20.5 °F 16.0 °F 56% 30.22 in 10.0 mi East 11.5 mph - N/A   Overcast
5:53 PM 28.0 °F 19.3 °F 16.0 °F 61% 30.24 in 10.0 mi ENE 9.2 mph - N/A   Scattered Clouds
6:53 PM 27.0 °F 17.3 °F 16.0 °F 63% 30.26 in 10.0 mi ENE 10.4 mph - N/A   Overcast
7:53 PM 27.0 °F 19.5 °F 16.0 °F 63% 30.28 in 10.0 mi NE 6.9 mph - N/A   Overcast
8:53 PM 27.0 °F 18.7 °F 17.1 °F 66% 30.28 in 10.0 mi East 8.1 mph - N/A   Overcast
9:53 PM 26.1 °F 21.9 °F 17.1 °F 69% 30.30 in 10.0 mi NE 3.5 mph - N/A   Overcast
10:53 PM 26.1 °F 20.5 °F 19.0 °F 75% 30.32 in 10.0 mi North 4.6 mph - N/A   Overcast
11:53 PM 26.1 °F - 19.0 °F 75% 30.31 in 10.0 mi Calm Calm - N/A   Overcast